Showing default

COSMOS 2254, 22689

Orbit data source: Space-Track

COSMOS 2254, 22689 is a payload satellite owned by VKS (CIS) in LEO that was launched on Thu, 24 Jun 1993 UTC via a TSIKLON-3 launch vehicle from the Plesetsk Missile And Space Complex (PKMTR). Payload-class satellites include a variety of spacecraft equipped with specific instruments for various scientific and technological missions. These include communications satellites like Starlink; space stations such as the ISS; scientific satellites like the Hubble; Earth observation satellites from companies like Planet Labs, Umbra, and HawkEye 360; GPS; miniature CubeSats for education and research; and military/defense satellites.

Loading next visibility...
Identifier
22689, 1993-038C
Orbit
LEO
Country
Flag of CISCIS
Related business
Manufacturer
NPO PM
Mission
Defense Communications
Bus & Motor
STRELA-3, Unknown motor
Mass
225 kg wet, 225 kg dry
Launch date (UTC)
1993-06-24 (33 years ago)
Launch vehicle
TSIKLON-3
Launch site
Plesetsk Missile And Space Complex (PKMTR)
Object type
Payload
Rocket body
Debris
Shape & HBR
Cyl, 0.8 m
Radar Cross Section
1.257 m², Large (>1 m²)

Expand to show TLE details & history
Last TLE update: 10 hours ago

TLE from 10 hours ago
0 COSMOS 2254
1 22689U 93038C   26126.32995675  .00000044  00000-0  18202-3 0  9997
2 22689  82.5824 230.8915 0012435  49.7368   5.3122 12.64913477516849
Epoch: 2026-05-06T07:55Z
TLE epoch observation values (Epoch: 2026-05-06T07:55:08.263Z)
Latitude
54.47379°
Longitude
-101.63125°
Altitude
1,402.016 km
Speed
7.169 km/s
True Right ascension
16h 05m 22s
True Declination
54° 19' 28"
Sunlit
Object was in daylight at epoch
Visualization orbit readout
Latitude
Unknown
Longitude
Unknown
Altitude
Unknown
Speed
Unknown
Apparent Right ascension
Unknown
Apparent Declination
Unknown
Sunlit
N/A
Visualization observer readout
Local Sidereal Time
02:05:30
Azimuth
Unknown
Elevation
Unknown
Doppler factor
Unknown
Orbital elements
Apogee altitude
1,409.718 km
Perigee altitude
1,390.374 km
Semi-major axis
7,778.183 km
Eccentricity
0.00124
Inclination
82.5824°
RAAN
230.8915°
Arg. of periapsis
49.7368°
True anomaly
5.32541°
Mean anomaly
5.3122°
Eccentric anomaly
5.3188°
Mean motion
3.16392 °/min
Orbital period
113.78 mins
BSTAR
0.00018202
Loading maneuver chart data...
Computing Atmospheric mass density...
Loading historical data...
Loading historical data...
Loading historical data...
Loading historical data...
Loading historical data...
Loading historical data...
Loading historical data...

Documentation

Showing up to 5 results
|